Terug naar catalogus

LINK

ActiefWetenschapVLEO
NORAD 69792·PAYLOAD·🇺🇸 United States

Gelanceerd Jul 3, 2026 vanaf Ronald Reagan Space and Missile Test Range

Loading…

Volgende Passages (komende 24 uur)

TLE

VersSource: Space-Track

Epoch: Sep 14, 2026, 00:41 UTC

1 69792U 26152A   26257.02905887  .00569573  00000-0  16354-2 0  9996
2 69792  20.5882 212.0305 0009227 323.6507  36.3317 15.90507813 11474

Volg LINK in realtime met AllMySat

Download on the App Store